"TOA5","AWS1","CR1000","7964","CR1000.Std.14","CPU:AWS1_114.CR1","64363","TBL110"
"TIMESTAMP","RECORD","Wind_spd_WVc(1)","Wind_spd_WVc(2)","Air_Temp_Avg","Humidity_Avg","SW_upper_Wm2_Avg","Rain_Tot","Press_Avg","Issui_Tot","Depth_cm","SR50A_Raw","Quality","Ground_Temp_Avg(1)","Ground_Temp_Avg(2)","SW_lower_Wm2_Avg","Albedo_Avg","SWC_per(1)","SWC_per(2)","Period(1)","Period(2)"
"TS","RN","","","","","","","","","","","","","","","","","","",""
"","","WVc","WVc","Avg","Avg","Avg","Tot","Avg","Tot","Smp","Smp","Smp","Avg","Avg","Avg","Avg","Smp","Smp","Smp","Smp"
"2017-09-10 00:00:00",305053,0.014,190.9,14.66,97,0,0,869.1735,0,-0.125,3.099,219,19.16,19.01,0.4547449,0,49.46,56.58,33.16,34.88
"2017-09-10 00:10:00",305054,0,0,14.64,96.7,0,0,869.1379,0,-0.361,3.102,239,19.17,19.01,0.4547449,0,49.46,56.58,33.16,34.88
"2017-09-10 00:20:00",305055,0,0,14.58,97.6,0,0,869.1622,0,0.491,3.093,211,19.1,19.01,0.4357972,0,49.46,56.58,33.16,34.88
"2017-09-10 00:30:00",305056,0.018,300.1,14.8,97.1,0,0,869.1387,0,-0.434,3.102,240,19.1,19.01,0.7616977,0,49.46,56.64,33.16,34.9
"2017-09-10 00:40:00",305057,0,0,14.61,97.5,0,0,868.9182,0,0.176,3.097,237,19.03,19.01,0.3183214,0,49.46,56.64,33.16,34.9
"2017-09-10 00:50:00",305058,0,0,14.46,99,0,0,868.8954,0,-0.289,3.102,249,19.05,19.01,0.3107423,0,49.46,56.64,33.16,34.9
"2017-09-10 01:00:00",305059,0,0,14.47,100,0,0,868.9054,0,-1.055,3.109,253,19.06,19.01,0.4547449,0,49.46,56.64,33.16,34.9
"2017-09-10 01:10:00",305060,0,0,14.46,100,0,0,868.9148,0,-1.11,3.11,309,19.08,19.01,0.4547449,0,49.46,56.58,33.16,34.88
"2017-09-10 01:20:00",305061,0,0,14.44,100,0,0,868.8846,0,-0.699,3.106,266,19.02,19.01,0.4547449,0,49.41,56.58,33.15,34.88
"2017-09-10 01:30:00",305062,0.02,218.5,14.38,100,0,0,868.6596,0,-0.549,3.105,249,19.01,19.01,0.4168495,0,49.46,56.58,33.16,34.88
"2017-09-10 01:40:00",305063,0,0,14.42,100,0,0,868.6631,0,-0.573,3.105,225,18.96,19.01,0.4509554,0,49.46,56.58,33.16,34.88
"2017-09-10 01:50:00",305064,0.063,191.4,14.38,100,0,0,868.4957,0,0.066,3.099,230,18.97,19.01,0.3334796,0,49.46,56.58,33.16,34.88
"2017-09-10 02:00:00",305065,0,0,14.39,100,0,0,868.6503,0,-0.337,3.102,216,18.98,19.01,0.4282182,0,49.46,56.58,33.16,34.88
"2017-09-10 02:10:00",305066,0,0,14.54,99.8,0,0,868.6297,0,-0.06,3.1,212,19.01,19.01,0.6214847,0,49.46,56.58,33.16,34.88
"2017-09-10 02:20:00",305067,0,0,14.31,100,0,0,868.6489,0,-0.555,3.106,218,18.99,19.01,0.4168495,0,49.46,56.58,33.16,34.88
"2017-09-10 02:30:00",305068,0.013,205.8,14.06,100,0,0,868.4863,0,-0.049,3.102,228,18.93,19.01,0.2122143,0,49.46,56.52,33.16,34.87
"2017-09-10 02:40:00",305069,0.241,201.8,14.1,100,0,0,868.4116,0,0.061,3.1,209,18.95,19.01,0.3941123,0,49.41,56.58,33.15,34.88
"2017-09-10 02:50:00",305070,0.134,198.6,14.02,100,0,0,868.5341,0,0.361,3.098,210,18.96,19.02,0.3675855,0,49.46,56.58,33.16,34.88
"2017-09-10 03:00:00",305071,0,0,13.99,100,0,0,868.6721,0,0.591,3.096,227,18.97,19.02,0.4547449,0,49.46,56.58,33.16,34.88
"2017-09-10 03:10:00",305072,0.005,203.2,13.97,100,0,0,868.8936,0,-0.182,3.104,222,18.93,19.03,0.5191671,0,49.41,56.58,33.15,34.88
"2017-09-10 03:20:00",305073,0.074,190.3,13.66,100,0,0,868.8347,0,0.161,3.103,240,18.88,19.01,0.1477921,0,49.41,56.52,33.15,34.87
"2017-09-10 03:30:00",305074,0.059,190.1,13.48,100,0,0,868.7272,0,-0.429,3.109,213,18.84,18.98,0.2842156,0,49.46,56.58,33.16,34.88
"2017-09-10 03:40:00",305075,0.136,189.7,13.29,100,0,0,868.6703,0,0.258,3.103,214,18.85,18.97,0.2955842,0,49.41,56.58,33.15,34.88
"2017-09-10 03:50:00",305076,0.305,188.1,13.24,100,0,0,868.6703,0,0.77,3.098,204,18.81,18.97,0.4092704,0,49.41,56.58,33.15,34.88
"2017-09-10 04:00:00",305077,0.323,187.4,13.2,100,0,0,868.6766,0,0.644,3.099,214,18.83,18.97,0.4471658,0,49.41,56.52,33.15,34.87
"2017-09-10 04:10:00",305078,0.222,186.8,13.37,100,0,0,868.7504,0,-0.091,3.105,245,18.84,18.97,0.5797998,0,49.41,56.52,33.15,34.87
"2017-09-10 04:20:00",305079,0.139,191.9,13.77,100,0,0,868.782,0,-0.253,3.104,246,18.79,18.97,0.8905421,0,49.41,56.52,33.15,34.87
"2017-09-10 04:30:00",305080,0,0,13.7,100,0,0,868.8262,0,-0.225,3.107,226,18.76,18.97,0.3410587,0,49.41,56.52,33.15,34.87
"2017-09-10 04:40:00",305081,0.01,190.8,13.3,100,0,0,868.862,0,0.74,3.099,336,18.79,18.97,0.09473852,0,49.41,56.52,33.15,34.87
"2017-09-10 04:50:00",305082,0.029,190.8,13.13,100,0,0,868.8998,0,0.354,3.103,345,18.76,18.97,0.3827437,0,49.41,56.52,33.15,34.87
"2017-09-10 05:00:00",305083,0.171,184.7,13.16,100,0,0,868.9167,0,-0.796,3.114,237,18.75,18.96,0.6176952,0,49.41,56.46,33.15,34.86
"2017-09-10 05:10:00",305084,0.153,158.9,13.04,100,0,0,868.7525,0,-1.092,3.115,239,18.71,18.98,0.553273,0,49.41,56.46,33.15,34.86
"2017-09-10 05:20:00",305085,0.005,192,13.59,100,0,0,868.822,0,0.042,3.103,238,18.65,18.99,1.042124,0,49.41,56.41,33.15,34.84
"2017-09-10 05:30:00",305086,0.193,184.6,13.32,100,0,0,868.9189,0,-0.369,3.111,216,18.62,18.99,0.3145319,0,49.41,56.46,33.15,34.86
"2017-09-10 05:40:00",305087,0.327,180,12.91,100,1.076898,0,868.923,0,0.932,3.099,213,18.66,19,0.5002194,0.381,49.41,56.41,33.15,34.84
"2017-09-10 05:50:00",305088,0.489,188.4,12.7,100,5.750005,0,868.9378,0,0.571,3.103,220,18.67,19.01,1.015597,0.184,49.41,56.35,33.15,34.83
"2017-09-10 06:00:00",305089,0.306,188.4,12.82,100,18.52736,0,869.1105,0,0.679,3.101,216,18.66,18.99,3.198373,0.173,49.35,56.41,33.14,34.84
"2017-09-10 06:10:00",305090,0.153,188.5,12.96,100,35.74986,0,869.2601,0,1.589,3.09,225,18.62,18.98,5.676733,0.159,49.35,56.41,33.14,34.84
"2017-09-10 06:20:00",305091,0,0,13.8,97.9,32.69603,0,869.5423,0,1.247,3.091,363,18.57,18.99,5.892736,0.179,49.35,56.41,33.14,34.84
"2017-09-10 06:30:00",305092,0,0,13.42,97,41.15007,0,869.7487,0,0.548,3.099,340,18.56,18.96,5.832103,0.144,49.35,56.41,33.14,34.84
"2017-09-10 06:40:00",305093,0,0,13.43,99.8,47.91409,0,869.7297,0,1.855,3.086,240,18.58,18.94,8.863736,0.19,49.41,56.35,33.15,34.83
"2017-09-10 06:50:00",305094,0,0,13.63,100,38.82727,0,869.6834,0,0.71,3.096,337,18.56,18.94,7.287287,0.179,49.41,56.41,33.15,34.84
"2017-09-10 07:00:00",305095,0,0,14.04,99.8,48.11453,0,869.8224,0,1.236,3.089,251,18.51,18.95,11.14883,0.234,49.41,56.41,33.15,34.84
"2017-09-10 07:10:00",305096,0.014,316,14.61,97,49.49013,0,869.993,0,1.848,3.077,228,18.49,18.94,12.08864,0.244,49.41,56.41,33.15,34.84
"2017-09-10 07:20:00",305097,0.083,182.3,15.54,85.6,52.87017,0,870.0836,0,2.061,3.074,213,18.48,18.94,13.75224,0.26,49.41,56.35,33.15,34.83
"2017-09-10 07:30:00",305098,0.363,136.5,15.29,91.3,56.1441,0,869.934,0,2.598,3.069,203,18.43,18.94,13.13455,0.234,49.41,56.41,33.15,34.84
"2017-09-10 07:40:00",305099,0.34,136,15.59,91,69.99834,0,869.934,0,2.258,3.07,202,18.42,18.95,14.92321,0.228,49.41,56.35,33.15,34.83
"2017-09-10 07:50:00",305100,0.264,119.2,16.16,87.2,148.5804,0,869.9323,0,1.388,3.075,217,18.41,18.97,18.15569,0.178,49.41,56.35,33.15,34.83
"2017-09-10 08:00:00",305101,0.325,14.8,16.6,81,121.0174,0,869.9238,0,1.166,3.076,223,18.41,18.97,20.50142,0.209,49.41,56.35,33.15,34.83
"2017-09-10 08:10:00",305102,0.472,14.44,16.56,81.6,346.2029,0,869.9048,0,2.323,3.065,229,18.41,18.96,23.51789,0.104,49.41,56.35,33.15,34.83
"2017-09-10 08:20:00",305103,0.374,18.43,16.7,82.5,198.5304,0,869.8865,0,-1.68,3.102,216,18.43,18.94,29.12641,0.194,49.41,56.35,33.15,34.83
"2017-09-10 08:30:00",305104,0.3,28.9,16.88,80.7,441.6628,0,869.8724,0,-0.336,3.089,244,18.4,18.94,29.95618,0.085,49.35,56.35,33.14,34.83
"2017-09-10 08:40:00",305105,0.371,8.68,17,80.7,253.6044,0,869.8594,0,1.605,3.07,344,18.36,18.94,33.61932,0.206,49.41,56.41,33.15,34.84
"2017-09-10 08:50:00",305106,0.49,13.05,16.98,81.2,112.002,0,869.8463,0,-0.677,3.092,245,18.36,18.9,35.97809,0.327,49.35,56.35,33.14,34.83
"2017-09-10 09:00:00",305107,0.189,47.76,17.23,80.9,314.1484,0,869.8426,0,-0.592,3.089,208,18.32,18.91,33.05406,0.181,49.41,56.35,33.15,34.83
"2017-09-10 09:10:00",305108,0.535,19.57,17.54,79.3,80.78985,0,869.8417,0,0.615,3.076,263,18.29,18.87,35.45717,0.442,49.41,56.35,33.15,34.83
"2017-09-10 09:20:00",305109,0.477,349.6,17.72,77.81,116.5691,0,869.8415,0,0.72,3.075,214,18.28,18.83,38.50172,0.355,49.35,56.35,33.14,34.83
"2017-09-10 09:30:00",305110,0.495,7.969,17.88,77.53,114.3923,0,869.8436,0,0.747,3.072,251,18.25,18.81,45.8133,0.402,49.35,56.41,33.14,34.84
"2017-09-10 09:40:00",305111,0.436,14.47,18.3,77.69,246.2954,0,869.8415,0,-1.357,3.091,233,18.24,18.84,52.29889,0.252,49.35,56.35,33.14,34.83
"2017-09-10 09:50:00",305112,0.424,23.36,18.6,76.38,357.6794,0,869.8436,0,1.443,3.063,282,18.24,18.83,61.68615,0.184,49.35,56.35,33.14,34.83
"2017-09-10 10:00:00",305113,0.508,6.252,17.98,79.04,181.6306,0,869.852,0,0.868,3.075,260,18.23,18.75,22.13517,0.116,49.41,56.35,33.15,34.83
"2017-09-10 10:10:00",305114,0.268,338.5,17.94,80.4,700.3369,0,869.852,0,2.468,3.054,248,18.25,18.68,74.76559,0.112,49.35,56.35,33.14,34.83
"2017-09-10 10:20:00",305115,0.459,345.3,18.73,75.79,651.7714,0,869.8436,0,0.67,3.07,208,18.24,18.7,72.00204,0.115,49.35,56.35,33.14,34.83
"2017-09-10 10:30:00",305116,0.398,355.1,18.02,76.7,148.3611,0,869.8415,0,0.55,3.076,198,18.23,18.7,22.92705,0.134,49.35,56.35,33.14,34.83
"2017-09-10 10:40:00",305117,0.3,341.4,18.64,73.49,499.2916,0,869.7572,0,-0.484,3.078,195,18.23,18.74,91.76767,0.249,49.3,56.35,33.12,34.83
"2017-09-10 10:50:00",305118,0.222,334,19.54,68.25,975.7024,0,869.593,0,0.268,3.068,195,18.31,18.71,116.7619,0.12,49.35,56.35,33.14,34.83
"2017-09-10 11:00:00",305119,0.522,1.105,19.78,65.31,851.8199,0,869.4752,0,0.73,3.064,210,18.31,18.66,105.0635,0.119,49.35,56.35,33.14,34.83
"2017-09-10 11:10:00",305120,0.518,335,19.91,60.88,1021.385,0,869.3361,0,-0.4,3.074,202,18.29,18.66,133.8314,0.131,49.3,56.35,33.12,34.83
"2017-09-10 11:20:00",305121,0.283,232.4,20.09,59.34,995.2729,0,869.294,0,-1.602,3.084,193,18.36,18.68,133.1305,0.134,49.35,56.35,33.14,34.83
"2017-09-10 11:30:00",305122,0.364,301.7,20.25,58.71,1034.099,0,869.1993,0,-0.98,3.078,200,18.38,18.67,142.5709,0.138,49.3,56.35,33.12,34.83
"2017-09-10 11:40:00",305123,0.454,299.7,20.22,58.74,1031.69,0,869.0792,0,0.688,3.061,199,18.35,18.63,146.3477,0.142,49.3,56.35,33.12,34.83
"2017-09-10 11:50:00",305124,0.828,329.9,20.3,56.37,1022.937,0,868.9782,0,-0.311,3.072,228,18.43,18.58,149.8633,0.147,49.3,56.35,33.12,34.83
"2017-09-10 12:00:00",305125,0.408,284.1,20.32,55.75,1008.8,0,868.9086,0,-1.16,3.077,195,18.45,18.56,150.5413,0.149,49.3,56.35,33.12,34.83
"2017-09-10 12:10:00",305126,0.354,311.4,20.78,54.34,996.6245,0,868.8329,0,3.529,3.03,388,18.5,18.54,149.223,0.15,49.24,56.35,33.11,34.83
"2017-09-10 12:20:00",305127,0.345,230.3,20.25,55.54,537.1852,0,868.8308,0,-0.382,3.072,210,18.54,18.56,77.39021,0.09,49.24,56.29,33.11,34.82
"2017-09-10 12:30:00",305128,0.433,288.7,20.3,52.27,963.0516,0,868.8371,0,-0.198,3.07,223,18.55,18.57,152.6741,0.159,49.24,56.29,33.11,34.82
"2017-09-10 12:40:00",305129,0.404,305.3,20.68,52.92,964.1046,0,868.8308,0,0.915,3.057,227,18.58,18.55,148.5677,0.154,49.19,56.35,33.09,34.83
"2017-09-10 12:50:00",305130,0.686,325.6,20.72,52.37,954.0779,0,868.8308,0,-0.735,3.072,221,18.64,18.53,146.3894,0.153,49.24,56.29,33.11,34.82
"2017-09-10 13:00:00",305131,0.574,23.65,20.95,51.29,953.7714,0,868.8308,0,-0.528,3.07,214,18.64,18.52,146.3667,0.153,49.19,56.29,33.09,34.82
"2017-09-10 13:10:00",305132,0.481,329.3,20.82,53.66,971.2238,0,868.8245,0,-0.264,3.067,204,18.68,18.51,148.7495,0.153,49.19,56.29,33.09,34.82
"2017-09-10 13:20:00",305133,0.377,301.8,21.17,54.38,887.0265,0,868.8287,0,-1.302,3.077,217,18.67,18.5,129.8764,0.145,49.13,56.29,33.08,34.82
"2017-09-10 13:30:00",305134,0.527,18.27,21.35,53.27,908.9932,0,868.8308,0,0.734,3.054,271,18.76,18.5,124.213,0.137,49.13,56.29,33.08,34.82
"2017-09-10 13:40:00",305135,0.457,275.5,21.14,53.65,899.5009,0,868.755,0,-0.264,3.067,244,18.8,18.52,110.2571,0.123,49.13,56.29,33.08,34.82
"2017-09-10 13:50:00",305136,0.287,285.7,20.91,54.49,692.0211,0,868.614,0,0.359,3.061,201,18.82,18.5,69.40835,0.096,49.13,56.29,33.08,34.82
"2017-09-10 14:00:00",305137,0.302,299.2,21.03,54.06,584.4779,0,868.6581,0,0.349,3.062,204,18.93,18.49,55.18347,0.099,49.08,56.23,33.07,34.8
"2017-09-10 14:10:00",305138,0.343,270.4,20.32,57.61,143.2415,0,868.5803,0,0.485,3.065,197,18.97,18.49,22.58177,0.159,49.08,56.23,33.07,34.8
"2017-09-10 14:20:00",305139,0.354,280.5,20.23,56.92,88.98671,0,868.5781,0,0.985,3.057,216,19.01,18.5,23.57808,0.266,49.08,56.18,33.07,34.79
"2017-09-10 14:30:00",305140,0.337,261.9,20.51,57.17,109.0715,0,868.694,0,0.477,3.061,202,19.1,18.5,23.15001,0.213,49.08,56.18,33.07,34.79
"2017-09-10 14:40:00",305141,0.432,247.3,20.64,59,172.5125,0,868.7382,0,-0.303,3.071,200,19.19,18.56,28.0672,0.163,49.03,56.18,33.05,34.79
"2017-09-10 14:50:00",305142,0.373,351,20.05,62.12,108.9483,0,868.7339,0,-0.46,3.075,203,19.2,18.5,15.08518,0.14,49.03,56.23,33.05,34.8
"2017-09-10 15:00:00",305143,0.301,250.9,19.82,63.82,106.0717,0,868.6603,0,0.435,3.065,213,19.32,18.5,16.36555,0.154,49.03,56.23,33.05,34.8
"2017-09-10 15:10:00",305144,0.457,254.7,20.22,63.02,151.6161,0,868.6624,0,0.081,3.067,199,19.33,18.53,23.96921,0.158,48.97,56.23,33.04,34.8
"2017-09-10 15:20:00",305145,0.247,260,20.28,63.34,138.2407,0,868.7823,0,1.115,3.057,210,19.43,18.57,19.95774,0.144,48.97,56.18,33.04,34.79
"2017-09-10 15:30:00",305146,0.198,226.5,20.26,61.33,106.6627,0,868.8308,0,1.384,3.056,232,19.39,18.57,13.43409,0.126,48.97,56.18,33.04,34.79
"2017-09-10 15:40:00",305147,0.537,298.8,20.27,60.44,70.46252,0,868.8287,0,-0.671,3.074,195,19.49,18.59,8.512771,0.121,48.97,56.18,33.04,34.79
"2017-09-10 15:50:00",305148,0.356,207.5,19.99,65.58,66.7874,0,868.7844,0,0.08,3.071,219,19.53,18.64,8.191074,0.122,48.92,56.18,33.03,34.79
"2017-09-10 16:00:00",305149,0.141,199.2,19.66,69.3,59.98791,0,868.7718,0,1.63,3.056,237,19.53,18.65,6.869085,0.114,48.97,56.18,33.04,34.79
"2017-09-10 16:10:00",305150,0.278,213.7,19.63,70.27,59.2694,0,868.8097,0,-0.315,3.075,202,19.64,18.69,6.956299,0.117,48.92,56.18,33.03,34.79
"2017-09-10 16:20:00",305151,0.176,218.9,19.32,71.46,52.2713,0,868.816,0,-0.357,3.077,198,19.66,18.7,5.766652,0.11,48.92,56.18,33.03,34.79
"2017-09-10 16:30:00",305152,0.3,201.4,19.05,72.38,36.23467,0,868.8287,0,0.741,3.068,212,19.66,18.72,3.383456,0.093,48.92,56.18,33.03,34.79
"2017-09-10 16:40:00",305153,0.485,201.4,18.62,73.62,28.82727,0,868.7361,0,-0.654,3.084,202,19.66,18.75,2.474116,0.086,48.92,56.18,33.03,34.79
"2017-09-10 16:50:00",305154,0.115,182.2,18.31,73.33,33.81816,0,869.0245,0,-0.363,3.083,197,19.66,18.75,3.963174,0.116,48.92,56.12,33.03,34.78
"2017-09-10 17:00:00",305155,0,0,18.07,75.1,42.4599,0,868.9929,0,-0.34,3.083,201,19.68,18.78,5.630354,0.132,48.92,56.12,33.03,34.78
"2017-09-10 17:10:00",305156,0.118,202.3,18.01,75.92,53.3306,0,869.0287,0,-0.79,3.088,193,19.71,18.8,7.782656,0.146,48.86,56.12,33.01,34.78
"2017-09-10 17:20:00",305157,0.062,154.6,17.92,77.86,43.4912,0,869.0961,0,-0.595,3.087,196,19.73,18.8,6.445232,0.148,48.86,56.12,33.01,34.78
"2017-09-10 17:30:00",305158,0.008,113,17.66,79.37,24.82921,0,869.0834,0,-0.145,3.084,212,19.75,18.78,3.569414,0.144,48.86,56.12,33.01,34.78
"2017-09-10 17:40:00",305159,0.171,26.47,17.48,78.35,18.93477,0,869.0308,0,1.098,3.071,235,19.73,18.78,2.857113,0.152,48.86,56.12,33.01,34.78
"2017-09-10 17:50:00",305160,0.074,82.4,17.43,79.35,11.66056,0,868.9129,0,1.211,3.074,249,19.7,18.79,1.648364,0.14,48.86,56.12,33.01,34.78
"2017-09-10 18:00:00",305161,0.031,161.8,16.72,84.3,2.373821,0,868.8434,0,-0.089,3.088,214,19.71,18.81,0.04168357,0.006,48.81,56.12,33,34.78
"2017-09-10 18:10:00",305162,0.03,174.2,16.42,85.4,0,0,869.1544,0,-0.209,3.091,228,19.75,18.87,0,0,48.86,56.12,33.01,34.78
"2017-09-10 18:20:00",305163,0.112,189.9,16.19,86.2,0,0,869.3425,0,-0.124,3.092,222,19.76,18.94,0,0,48.86,56.12,33.01,34.78
"2017-09-10 18:30:00",305164,0.364,197.1,15.75,87.8,0,0,869.1361,0,0.273,3.09,237,19.76,18.96,0,0,48.81,56.12,33,34.78
"2017-09-10 18:40:00",305165,0.196,181.3,15.55,88.5,0,0,869.3288,0,1.808,3.076,297,19.72,18.94,0,0,48.81,56.12,33,34.78
"2017-09-10 18:50:00",305166,0.259,192.3,15.29,90.1,0,0,869.3997,0,1.547,3.079,275,19.7,18.94,0,0,48.81,56.06,33,34.76
"2017-09-10 19:00:00",305167,0.002,207.4,15.36,88.9,0,0,869.6161,0,1.333,3.082,258,19.69,18.94,0.1553712,0,48.81,56.06,33,34.76
"2017-09-10 19:10:00",305168,0.386,190.3,15.02,90,0,0,869.7861,0,0.956,3.088,253,19.71,18.93,0,0,48.81,56.06,33,34.76
"2017-09-10 19:20:00",305169,0.306,188.9,14.79,90.9,0,0,869.6886,0,-1.255,3.11,202,19.7,18.93,0,0,48.81,56.06,33,34.76
"2017-09-10 19:30:00",305170,0.367,191.1,14.72,91.3,0,0,869.7623,0,-0.228,3.1,217,19.63,18.93,0.1781084,0,48.81,56.06,33,34.76
"2017-09-10 19:40:00",305171,0.177,200.6,14.78,91.6,0,0,869.9145,0,0.443,3.093,243,19.66,18.93,0.3751645,0,48.81,56.06,33,34.76
"2017-09-10 19:50:00",305172,0.117,185.5,14.74,91.6,0,0,869.9178,0,-0.228,3.1,226,19.64,18.96,0.2842156,0,48.81,56.06,33,34.76
"2017-09-10 20:00:00",305173,0.168,184.7,14.87,91.5,0,0,869.9279,0,-1.152,3.109,206,19.62,19,0.5077985,0,48.75,56.06,32.99,34.76
"2017-09-10 20:10:00",305174,0.27,184.9,14.64,92.2,0,0,869.933,0,-2.028,3.118,183,19.61,19,0.2273725,0,48.81,56,33,34.75
"2017-09-10 20:20:00",305175,0.114,184.8,14.76,91.7,0,0,869.9508,0,-1.586,3.113,200,19.58,18.98,0.4320077,0,48.75,56,32.99,34.75
"2017-09-10 20:30:00",305176,0.252,183,14.59,92.5,0,0,870.1435,0,-1.418,3.113,200,19.58,18.97,0.2349515,0,48.81,56.06,33,34.76
"2017-09-10 20:40:00",305177,0.285,185.7,14.46,94.1,0,0,870.066,0,-1.308,3.111,197,19.54,18.97,0.2576888,0,48.75,56,32.99,34.75
"2017-09-10 20:50:00",305178,0.084,184.9,14.55,94.3,0,0,870.1761,0,-1.206,3.11,198,19.52,18.97,0.4547449,0,48.75,56.06,32.99,34.76
"2017-09-10 21:00:00",305179,0.383,187.1,14.42,94.3,0,0,870.1425,0,-1.007,3.109,205,19.47,18.97,0.280426,0,48.81,56,33,34.75
"2017-09-10 21:10:00",305180,0.412,187,14.34,94.9,0,0,869.9656,0,-0.706,3.107,200,19.5,18.98,0.2425306,0,48.81,56.06,33,34.76
"2017-09-10 21:20:00",305181,0.14,207,14.66,95.2,0,0,869.9424,0,-1.193,3.108,197,19.45,19.03,0.7768559,0,48.75,56.06,32.99,34.76
"2017-09-10 21:30:00",305182,0.053,179.8,14.64,93.6,0,0,870.1215,0,-1.61,3.113,192,19.45,19.02,0.5987474,0,48.75,56.06,32.99,34.76
"2017-09-10 21:40:00",305183,0.141,192.3,14.94,93.2,0,0,870.3258,0,-1.652,3.112,196,19.42,19.02,0.8943317,0,48.75,56.06,32.99,34.76
"2017-09-10 21:50:00",305184,0.129,190.2,14.9,93.4,0,0,870.4395,0,-1.755,3.113,192,19.41,19.06,0.4964299,0,48.75,56,32.99,34.75
"2017-09-10 22:00:00",305185,0.053,190.1,15.15,93.3,0,0,870.4395,0,-1.519,3.11,184,19.38,19.09,0.6707488,0,48.75,56,32.99,34.75
"2017-09-10 22:10:00",305186,0.109,189.7,15.29,93.2,0,0,870.4327,0,-2.105,3.115,192,19.33,19.08,0.553273,0,48.75,56,32.99,34.75
"2017-09-10 22:20:00",305187,0.008,164,15.44,93.3,0,0,870.3547,0,-1.625,3.108,193,19.28,19.08,0.5911684,0,48.75,56,32.99,34.75
"2017-09-10 22:30:00",305188,0.025,152.8,15.86,91.8,0,0,870.1679,0,-1.365,3.105,197,19.28,19.07,0.6859069,0,48.75,56,32.99,34.75
"2017-09-10 22:40:00",305189,0.085,166.5,15.71,92.6,0,0,870.1639,0,-1.009,3.102,188,19.32,19.06,0.4357972,0,48.75,56,32.99,34.75
"2017-09-10 22:50:00",305190,0.033,198.4,15.83,92.6,0,0,870.1685,0,-1.105,3.102,203,19.29,19.06,0.4547449,0,48.75,55.95,32.99,34.74
"2017-09-10 23:00:00",305191,0,0,15.8,92.7,0,0,870.1545,0,-1.324,3.106,198,19.28,19.06,0.3031633,0,48.81,56,33,34.75
"2017-09-10 23:10:00",305192,0.061,204.1,15.61,95,0,0,870.131,0,-1.16,3.103,193,19.28,19.06,0.2425306,0,48.75,56,32.99,34.75
"2017-09-10 23:20:00",305193,0.129,160.8,15.31,94.7,0,0,870.1465,0,-1.701,3.112,195,19.3,19.06,0.07958036,0,48.75,56,32.99,34.75
"2017-09-10 23:30:00",305194,0.153,188.6,15.16,95.9,0,0,869.9897,0,-2.389,3.118,196,19.26,19.06,0.003789541,0,48.75,56,32.99,34.75
"2017-09-10 23:40:00",305195,0,0,15.41,95.7,0,0,870.1337,0,-2.16,3.116,195,19.21,19.06,0.4054809,0,48.75,55.95,32.99,34.74
"2017-09-10 23:50:00",305196,0.042,189,15.16,95.9,0,0,870.0827,0,-2.625,3.121,190,19.19,19.06,0.1061071,0,48.75,55.95,32.99,34.74
